K0JRF-13 Weather Reports


time (UTC)temp
C
wind
direction
speed
KPH
gust
KPH
rain 1hr
cm
rain 24hr
cm
rain mn
cm
humidity
%
barometer
mb
20260831135908 21 273 1.6 8.0 0.00 0.69 0.69 86 1017.6
20260831134907 21 219 4.8 8.0 0.00 0.69 0.69 87 1017.9
20260831133908 20 226 4.8 6.4 0.00 0.69 0.69 88 1017.9
20260831132908 20 275 3.2 8.0 0.00 0.69 0.69 87 1017.9
20260831131908 20 353 9.7 9.7 0.00 0.69 0.69 90 1018.3
20260831130908 20 8 4.8 6.4 0.00 0.69 0.69 90 1018.3
20260831125907 20 266 8.0 9.7 0.00 0.69 0.69 89 1018.3
20260831124908 20 115 6.4 9.7 0.00 0.69 0.69 89 1018.3
20260831123908 19 277 3.2 9.7 0.00 0.69 0.69 90 1018.6
20260831122908 19 342 3.2 6.4 0.00 0.69 0.69 90 1018.3
20260831121907 19 2 3.2 8.0 0.00 0.69 0.69 90 1018.3
20260831120908 19 265 6.4 8.0 0.00 0.69 0.69 90 1018.3
20260831115908 18 341 3.2 6.4 0.00 0.69 0.69 91 1017.9
20260831114908 18 285 3.2 9.7 0.00 0.69 0.69 92 1017.9
20260831113908 18 56 3.2 6.4 0.00 0.69 0.69 93 1017.9
20260831112908 18 13 3.2 6.4 0.00 0.69 0.69 93 1017.9
20260831111908 18 39 4.8 4.8 0.00 0.69 0.69 94 1017.9
20260831110908 18 166 0.0 4.8 0.00 0.69 0.69 95 1017.9
20260831105908 18 117 3.2 6.4 0.00 0.69 0.69 95 1017.9
20260831104908 18 82 3.2 4.8 0.00 0.69 0.69 96 1017.9
20260831103908 18 170 3.2 3.2 0.03 0.69 0.69 96 1017.6
20260831102908 18 310 6.4 6.4 0.15 0.69 0.69 96 1017.9
20260831101908 18 92 3.2 6.4 0.20 0.69 0.69 96 1017.9
20260831100908 18 213 8.0 11.3 0.23 0.69 0.69 96 1018.3
20260831095908 17 116 9.7 12.9 0.23 0.69 0.69 97 1018.3
20260831094908 17 169 6.4 9.7 0.20 0.66 0.66 96 1018.3
20260831093908 17 152 3.2 9.7 0.20 0.66 0.66 97 1018.3
20260831092908 17 163 3.2 3.2 0.08 0.53 0.53 96 1018.6
20260831091908 17 205 0.0 3.2 0.03 0.48 0.48 96 1018.6
20260831090908 17 168 1.6 4.8 0.03 0.46 0.46 96 1018.3
20260831085908 17 329 3.2 4.8 0.05 0.46 0.46 96 1018.6
20260831084908 17 291 8.0 12.9 0.03 0.46 0.46 95 1018.6
20260831083908 17 114 3.2 6.4 0.05 0.46 0.46 94 1018.3
20260831082908 17 209 3.2 4.8 0.05 0.46 0.46 95 1017.9
20260831081908 17 203 3.2 4.8 0.03 0.43 0.43 94 1018.3
20260831080907 17 215 3.2 4.8 0.03 0.43 0.43 95 1018.3
20260831075907 17 101 3.2 6.4 0.03 0.43 0.43 95 1017.9
20260831074907 17 159 1.6 3.2 0.05 0.43 0.43 94 1018.6
20260831073907 17 129 0.0 4.8 0.05 0.41 0.41 94 1018.6
20260831072907 18 287 0.0 3.2 0.05 0.41 0.41 94 1018.3
20260831071907 18 168 4.8 4.8 0.08 0.41 0.41 95 1018.3
20260831070907 18 147 3.2 8.0 0.08 0.41 0.41 95 1018.6
20260831065907 18 129 3.2 4.8 0.10 0.38 0.38 96 1018.3
20260831064907 18 187 1.6 3.2 0.13 0.38 0.38 95 1018.3
20260831063907 18 319 0.0 3.2 0.13 0.36 0.36 96 1018.3
20260831062907 18 154 3.2 3.2 0.13 0.36 0.36 95 1018.3
20260831061907 18 34 0.0 6.4 0.10 0.33 0.33 95 1018.3
20260831060907 18 286 4.8 6.4 0.10 0.33 0.33 95 1019.3
20260831055907 18 198 1.6 6.4 0.10 0.28 0.28 96 1019.0
20260831054907 18 307 3.2 4.8 0.10 0.25 0.25 96 1019.3
20260831053907 18 239 0.0 4.8 0.10 0.23 0.23 96 1019.3
20260831052907 18 156 3.2 3.2 0.10 0.23 0.23 96 1019.0
20260831051907 18 293 0.0 1.6 0.18 0.20 0.20 95 1019.0
20260831050907 18 110 0.0 3.2 0.18 0.20 0.20 95 1019.0
20260831045907 18 19 4.8 4.8 0.20 0.20 0.20 95 1019.3
20260831044907 18 319 6.4 6.4 0.20 0.13 0.13 95 1019.3
20260831043907 18 18 3.2 8.0 0.25 0.13 0.13 96 1019.3
20260831042907 18 291 3.2 4.8 0.25 0.13 0.13 95 1020.0
20260831041907 18 334 4.8 8.0 0.20 0.03 0.03 97 1019.3
20260831040907 18 161 3.2 3.2 0.20 0.03 0.03 97 1019.6
20260831035907 18 114 1.6 3.2 0.20 0.76 0.76 97 1020.0
20260831034907 18 168 3.2 3.2 0.20 0.71 0.71 97 1020.0
20260831033907 18 230 3.2 4.8 0.18 0.64 0.64 97 1020.0
20260831032907 18 211 1.6 4.8 0.18 0.64 0.64 96 1020.3
20260831031908 18 310 0.0 3.2 0.15 0.61 0.61 96 1020.3
20260831030908 18 62 0.0 1.6 0.15 0.58 0.58 96 1020.3
20260831025907 18 146 1.6 3.2 0.13 0.56 0.56 96 1020.3
20260831024908 18 180 3.2 3.2 0.10 0.48 0.48 97 1020.0
20260831023907 19 132 0.0 3.2 0.10 0.46 0.46 96 1020.0
20260831022907 19 151 0.0 0.0 0.10 0.46 0.46 96 1020.3
20260831021907 19 162 6.4 6.4 0.13 0.43 0.43 96 1020.0
20260831020908 19 205 4.8 6.4 0.13 0.43 0.43 97 1020.3
20260831015908 19 180 3.2 4.8 0.13 0.43 0.43 97 1020.3
20260831014907 19 324 0.0 3.2 0.10 0.41 0.41 96 1020.3
20260831013907 19 169 1.6 3.2 0.08 0.36 0.36 96 1020.7
20260831012907 19 210 1.6 3.2 0.05 0.33 0.33 96 1020.7
20260831011907 19 224 0.0 3.2 0.05 0.33 0.33 96 1020.7
20260831010907 19 206 1.6 3.2 0.05 0.30 0.30 96 1020.7
20260831005908 19 117 0.0 0.0 0.05 0.30 0.30 95 1021.0
20260831004908 19 275 1.6 3.2 0.05 0.28 0.28 95 1020.7
20260831003907 20 289 4.8 6.4 0.05 0.28 0.28 95 1020.3
20260831002908 19 207 4.8 6.4 0.05 0.28 0.28 95 1020.0
20260831001907 19 258 1.6 3.2 0.05 0.28 0.28 94 1020.0
20260831000908 20 200 3.2 4.8 0.05 0.28 0.28 94 1019.6
20260830235907 20 294 0.0 1.6 0.03 0.25 0.25 94 1020.0
20260830234908 20 204 0.0 1.6 0.03 0.23 0.23 94 1019.6
20260830233908 20 129 0.0 1.6 0.03 0.23 0.23 93 1019.6
20260830232908 20 214 1.6 3.2 0.03 0.23 0.23 93 1019.6
20260830231908 20 256 1.6 1.6 0.03 0.23 0.23 92 1019.3
20260830230908 20 339 1.6 4.8 0.03 0.23 0.23 92 1019.3
20260830225908 20 226 1.6 3.2 0.05 0.23 0.23 91 1019.0
20260830224908 20 217 0.0 3.2 0.05 0.23 0.23 90 1019.0
20260830223908 21 342 3.2 4.8 0.05 0.23 0.23 87 1019.0
20260830222908 21 327 0.0 1.6 0.03 0.20 0.20 85 1019.0
20260830221908 21 292 4.8 4.8 0.03 0.20 0.20 85 1018.6
20260830220908 21 274 0.0 3.2 0.03 0.20 0.20 87 1018.6
20260830215908 21 240 1.6 6.4 0.03 0.20 0.20 87 1018.6
20260830214908 21 232 1.6 3.2 0.03 0.18 0.18 88 1018.6
20260830213908 21 226 1.6 3.2 0.03 0.18 0.18 84 1019.0
20260830212908 21 337 3.2 4.8 0.03 0.18 0.18 84 1018.6
20260830211908 20 336 1.6 3.2 0.00 0.15 0.15 85 1018.6
20260830210908 21 302 1.6 3.2 0.03 0.15 0.15 85 1019.0
20260830205908 21 225 1.6 1.6 0.03 0.15 0.15 84 1019.0
20260830204908 21 327 0.0 3.2 0.03 0.15 0.15 86 1019.0
20260830203908 21 224 0.0 0.0 0.03 0.15 0.15 87 1019.0
20260830202908 21 148 0.0 1.6 0.05 0.15 0.15 83 1019.3
20260830201908 21 341 1.6 3.2 0.05 0.15 0.15 85 1019.6
20260830200908 21 281 4.8 4.8 0.05 0.13 0.13 87 1019.6
20260830195908 21 267 1.6 4.8 0.03 0.13 0.13 84 1020.0
20260830194908 21 264 1.6 9.7 0.03 0.13 0.13 82 1020.0
20260830193908 21 247 1.6 4.8 0.03 0.13 0.13 80 1020.0
20260830192908 21 250 3.2 8.0 0.00 0.10 0.10 77 1019.6
20260830191908 21 282 6.4 6.4 0.00 0.10 0.10 76 1020.0
20260830190908 22 184 1.6 6.4 0.00 0.10 0.10 78 1020.0
20260830185908 21 257 3.2 12.9 0.00 0.10 0.10 76 1020.3
20260830184908 21 213 8.0 8.0 0.00 0.10 0.10 78 1020.3
20260830183908 22 233 4.8 19.3 0.00 0.10 0.10 77 1020.3
20260830182908 21 282 1.6 9.7 0.00 0.10 0.10 77 1020.3
20260830181908 22 285 9.7 9.7 0.00 0.10 0.10 73 1020.3
20260830180908 22 265 4.8 8.0 0.00 0.10 0.10 70 1020.3
20260830175908 21 257 4.8 8.0 0.03 0.10 0.10 72 1020.3
20260830174908 21 250 3.2 8.0 0.03 0.10 0.10 80 1020.7
20260830173908 21 291 8.0 11.3 0.05 0.10 0.10 82 1020.7
20260830172908 20 240 3.2 8.0 0.05 0.10 0.10 84 1020.7
20260830171908 21 68 3.2 9.7 0.05 0.10 0.10 85 1020.7
20260830170908 20 219 4.8 4.8 0.08 0.10 0.10 87 1020.7
20260830165908 20 306 1.6 8.0 0.08 0.08 0.08 84 1021.0
20260830164908 20 240 3.2 4.8 0.05 0.08 0.08 85 1020.7
20260830163908 21 274 4.8 6.4 0.05 0.05 0.05 83 1021.0
20260830162908 21 276 3.2 3.2 0.05 0.05 0.05 81 1020.7
20260830161908 21 24 3.2 6.4 0.03 0.03 0.03 80 1020.7
20260830160908 21 286 1.6 8.0 0.03 0.03 0.03 82 1020.3
20260830155908 20 214 0.0 3.2 0.00 0.00 0.00 84 1020.3
20260830154908 20 197 1.6 3.2 0.00 0.00 0.00 83 1020.7
20260830153908 20 235 1.6 4.8 0.00 0.00 0.00 80 1020.7
20260830152908 20 212 0.0 3.2 0.00 0.00 0.00 84 1020.7
20260830151908 20 217 0.0 3.2 0.00 0.00 0.00 78 1020.7
20260830150908 21 224 4.8 4.8 0.00 0.00 0.00 80 1021.0
20260830145908 19 198 0.0 3.2 0.00 0.00 0.00 86 1020.7
20260830144908 19 230 0.0 3.2 0.00 0.00 0.00 86 1020.7
20260830143908 20 315 0.0 0.0 0.00 0.00 0.00 85 1020.7
20260830142908 20 235 0.0 3.2 0.00 0.00 0.00 83 1020.7
20260830141908 20 154 0.0 1.6 0.00 0.00 0.00 83 1020.3
20260830140908 20 282 1.6 3.2 0.00 0.00 0.00 80 1020.3